Location: Austin
(30.3000°N, 97.7500°W)
Time: 03:45:25
(UTC-05:00)

CZ-4 R/B - Pass Details

Date: 18 March 2023
Orbit: 526 x 586 km, 97.7° (Epoch: 01 April)

Event Time Altitude Azimuth Distance (km) Brightness Sun altitude
Rises 21:02:01 0° 176° (S) 2,648 4.7 -18.2°
Reaches altitude 10° 21:04:09 10° 180° (S) 1,760 3.8 -18.6°
Maximum altitude 21:07:52 57° 260° (W) 622 1.8 -19.4°
Drops below altitude 10° 21:11:38 10° 339° (NNW) 1,773 4.3 -20.2°
Sets 21:13:46 0° 344° (NNW) 2,669 5.2 -20.7°
